AAL1294 KORD-KPSP

Flight info

Callsign AAL1294
Flight time N/A
Altitude 30000
Route PEKUE PIPPN ROTTN LEFAM Q90 DAAYE TBC PLNDL Q86 YORRK RDBUL1
Aircraft A321/M-SDE3FGHIRWY/LB1

Departure

Time 2026-05-06 04:54
Airport Chicago O'Hare International Airport (KORD)

Arrival

Time N/A
Airport Palm Springs International Airport (KPSP)
Time Latitude Longitude Altitude Speed Heading
2026-05-06 04:26 41.97414 -87.90757 668 ft 4 kts 323°
2026-05-06 04:26 41.97392 -87.90735 666 ft 3 kts 323°
2026-05-06 04:26 41.97399 -87.90742 665 ft 8 kts 326°
2026-05-06 04:26 41.97405 -87.90742 667 ft 8 kts 17°
2026-05-06 04:27 41.97381 -87.90723 666 ft 16 kts 177°
2026-05-06 04:27 41.97274 -87.90723 669 ft 15 kts 180°
2026-05-06 04:27 41.97215 -87.90695 669 ft 13 kts 87°
2026-05-06 04:27 41.97215 -87.90583 669 ft 16 kts 97°
2026-05-06 04:28 41.97207 -87.90439 669 ft 16 kts 91°
2026-05-06 04:28 41.97206 -87.90343 669 ft 6 kts 91°
2026-05-06 04:28 41.97205 -87.90271 669 ft 13 kts 92°
2026-05-06 04:28 41.97206 -87.90178 669 ft 12 kts 90°
2026-05-06 04:29 41.97204 -87.90072 669 ft 16 kts 91°
2026-05-06 04:29 41.97207 -87.89928 669 ft 16 kts 83°
2026-05-06 04:29 41.97230 -87.89833 669 ft 10 kts 62°
2026-05-06 04:29 41.97280 -87.89829 667 ft 11 kts 326°
2026-05-06 04:30 41.97345 -87.89884 669 ft 16 kts 337°
2026-05-06 04:30 41.97414 -87.89928 668 ft 7 kts 319°
2026-05-06 04:30 41.97431 -87.89979 669 ft 7 kts 277°
2026-05-06 04:30 41.97432 -87.89991 669 ft 0 kts 276°
2026-05-06 04:45 41.97431 -87.89988 669 ft 3 kts 276°
2026-05-06 04:46 41.97427 -87.89953 669 ft 4 kts 283°
2026-05-06 04:46 41.97420 -87.89919 665 ft 4 kts 292°
2026-05-06 04:46 41.97408 -87.89887 668 ft 4 kts 307°
2026-05-06 04:46 41.97390 -87.89862 668 ft 3 kts 327°
2026-05-06 04:47 41.97367 -87.89847 667 ft 4 kts 355°
2026-05-06 04:47 41.97346 -87.89852 669 ft 4 kts 48°
2026-05-06 04:47 41.97337 -87.89877 669 ft 4 kts 111°
2026-05-06 04:47 41.97353 -87.89899 665 ft 4 kts 144°
2026-05-06 04:48 41.97365 -87.89911 669 ft 0 kts 144°
2026-05-06 04:49 41.97363 -87.89910 669 ft 1 kts 144°
2026-05-06 04:49 41.97324 -87.89871 666 ft 17 kts 144°
2026-05-06 04:50 41.97262 -87.89755 669 ft 12 kts 84°
2026-05-06 04:50 41.97227 -87.89688 669 ft 8 kts 98°
2026-05-06 04:50 41.97235 -87.89597 667 ft 12 kts 80°
2026-05-06 04:50 41.97201 -87.89488 669 ft 15 kts 103°
2026-05-06 04:51 41.97195 -87.89332 669 ft 19 kts 90°
2026-05-06 04:51 41.97195 -87.89139 669 ft 23 kts 90°
2026-05-06 04:51 41.97195 -87.88909 669 ft 26 kts 90°
2026-05-06 04:51 41.97197 -87.88651 669 ft 28 kts 90°
2026-05-06 04:52 41.97188 -87.88485 667 ft 20 kts 110°
2026-05-06 04:52 41.97101 -87.88446 669 ft 14 kts 178°
2026-05-06 04:52 41.97004 -87.88444 668 ft 14 kts 179°
2026-05-06 04:52 41.96918 -87.88486 668 ft 13 kts 238°
2026-05-06 04:53 41.96910 -87.88549 668 ft 0 kts 270°
2026-05-06 04:53 41.96912 -87.88757 667 ft 57 kts 270°
2026-05-06 04:53 41.96907 -87.89585 672 ft 119 kts 270°
2026-05-06 04:53 41.96902 -87.90937 670 ft 169 kts 270°
2026-05-06 04:54 41.96906 -87.92615 1071 ft 183 kts 272°
2026-05-06 04:54 41.96904 -87.94302 2086 ft 177 kts 275°
2026-05-06 04:54 41.96901 -87.95970 2681 ft 184 kts 275°
2026-05-06 04:54 41.96903 -87.97771 2820 ft 201 kts 275°
2026-05-06 04:55 41.96834 -87.99727 2981 ft 224 kts 263°
2026-05-06 04:55 41.96429 -88.01860 3135 ft 247 kts 259°
2026-05-06 04:55 41.95963 -88.04138 3543 ft 259 kts 258°
2026-05-06 04:55 41.95467 -88.06496 4229 ft 261 kts 257°
2026-05-06 04:56 41.94968 -88.08850 4973 ft 262 kts 256°
2026-05-06 04:56 41.94470 -88.11201 5679 ft 262 kts 255°
2026-05-06 04:56 41.93975 -88.13552 6449 ft 261 kts 255°
2026-05-06 04:56 41.93483 -88.15889 7171 ft 259 kts 255°
2026-05-06 04:57 41.92994 -88.18212 7859 ft 258 kts 255°
2026-05-06 04:57 41.92506 -88.20523 8561 ft 257 kts 256°
2026-05-06 04:57 41.92017 -88.22832 9277 ft 256 kts 256°
2026-05-06 04:57 41.91531 -88.25126 9971 ft 255 kts 256°
2026-05-06 04:58 41.91042 -88.27453 10327 ft 268 kts 256°
2026-05-06 04:58 41.90519 -88.29961 10452 ft 287 kts 256°
2026-05-06 04:58 41.89963 -88.32622 10581 ft 305 kts 256°
2026-05-06 04:58 41.89372 -88.35421 10908 ft 315 kts 256°
2026-05-06 04:59 41.88777 -88.38227 11420 ft 318 kts 256°
2026-05-06 04:59 41.88159 -88.41135 11982 ft 321 kts 256°
2026-05-06 04:59 41.87555 -88.43974 12548 ft 323 kts 256°
2026-05-06 04:59 41.86936 -88.46886 13120 ft 326 kts 256°
2026-05-06 05:00 41.86311 -88.49819 13697 ft 328 kts 256°
2026-05-06 05:00 41.85679 -88.52777 14219 ft 330 kts 256°
2026-05-06 05:00 41.85044 -88.55753 14749 ft 333 kts 256°
2026-05-06 05:00 41.84406 -88.58738 15269 ft 335 kts 256°
2026-05-06 05:01 41.83761 -88.61752 15796 ft 337 kts 256°
2026-05-06 05:01 41.83111 -88.64776 16306 ft 339 kts 256°
2026-05-06 05:01 41.82455 -88.67830 16822 ft 341 kts 256°
2026-05-06 05:01 41.81796 -88.70893 17323 ft 343 kts 256°
2026-05-06 05:02 41.81124 -88.74019 17821 ft 346 kts 256°
2026-05-06 05:02 41.80457 -88.77120 18317 ft 347 kts 256°
2026-05-06 05:02 41.79786 -88.80240 18716 ft 350 kts 257°
2026-05-06 05:02 41.79312 -88.83440 19115 ft 352 kts 261°
2026-05-06 05:03 41.78897 -88.86673 19528 ft 354 kts 261°
2026-05-06 05:03 41.78475 -88.89938 19935 ft 357 kts 261°
2026-05-06 05:03 41.78050 -88.93203 20337 ft 360 kts 261°
2026-05-06 05:03 41.77614 -88.96557 20741 ft 363 kts 261°
2026-05-06 05:04 41.77176 -88.99908 21130 ft 366 kts 260°
2026-05-06 05:04 41.76732 -89.03278 21516 ft 368 kts 260°
2026-05-06 05:04 41.76282 -89.06667 21890 ft 371 kts 260°
2026-05-06 05:04 41.75835 -89.10034 22250 ft 374 kts 260°
2026-05-06 05:05 41.75374 -89.13517 22604 ft 376 kts 259°
2026-05-06 05:05 41.74918 -89.16928 22959 ft 378 kts 259°
2026-05-06 05:05 41.74453 -89.20409 23302 ft 381 kts 259°
2026-05-06 05:05 41.73985 -89.23912 23622 ft 384 kts 259°
2026-05-06 05:06 41.73515 -89.27434 23919 ft 386 kts 259°
2026-05-06 05:06 41.73040 -89.30971 24235 ft 387 kts 259°
2026-05-06 05:06 41.72563 -89.34526 24546 ft 388 kts 259°
2026-05-06 05:06 41.72087 -89.38094 24849 ft 390 kts 259°
2026-05-06 05:07 41.71608 -89.41670 25152 ft 392 kts 259°
2026-05-06 05:07 41.71123 -89.45258 25460 ft 393 kts 259°
2026-05-06 05:07 41.70623 -89.48922 25762 ft 394 kts 259°
2026-05-06 05:07 41.70133 -89.52499 26066 ft 396 kts 259°
2026-05-06 05:08 41.69637 -89.56121 26347 ft 398 kts 259°
2026-05-06 05:08 41.69138 -89.59763 26641 ft 399 kts 259°
2026-05-06 05:08 41.68638 -89.63419 26925 ft 400 kts 259°
2026-05-06 05:08 41.68133 -89.67097 27202 ft 402 kts 259°
2026-05-06 05:09 41.67624 -89.70785 27477 ft 403 kts 259°
2026-05-06 05:09 41.67102 -89.74480 27741 ft 404 kts 259°
2026-05-06 05:09 41.66539 -89.78166 28010 ft 406 kts 258°
2026-05-06 05:09 41.65940 -89.81866 28280 ft 407 kts 258°
2026-05-06 05:10 41.65325 -89.85568 28539 ft 409 kts 258°
2026-05-06 05:10 41.64707 -89.89277 28810 ft 410 kts 258°
2026-05-06 05:10 41.64089 -89.93016 29087 ft 412 kts 258°
2026-05-06 05:10 41.63477 -89.96743 29392 ft 411 kts 258°
2026-05-06 05:11 41.62867 -90.00483 29791 ft 410 kts 258°
2026-05-06 05:11 41.62265 -90.04201 30153 ft 408 kts 258°
2026-05-06 05:11 41.61664 -90.07895 30500 ft 407 kts 258°
2026-05-06 05:11 41.61059 -90.11583 30821 ft 405 kts 258°
2026-05-06 05:12 41.60455 -90.15246 31147 ft 403 kts 258°
2026-05-06 05:12 41.59852 -90.18897 31481 ft 402 kts 258°
2026-05-06 05:12 41.59252 -90.22533 31808 ft 400 kts 258°
2026-05-06 05:12 41.58655 -90.26154 32122 ft 398 kts 258°
2026-05-06 05:13 41.58063 -90.29752 32433 ft 397 kts 258°
2026-05-06 05:13 41.57470 -90.33354 32756 ft 395 kts 258°
2026-05-06 05:13 41.56877 -90.36928 33068 ft 393 kts 258°
2026-05-06 05:13 41.56285 -90.40478 33370 ft 392 kts 258°
2026-05-06 05:14 41.55691 -90.44023 33667 ft 390 kts 258°
2026-05-06 05:14 41.55098 -90.47550 33916 ft 389 kts 258°
2026-05-06 05:14 41.54505 -90.51086 33972 ft 388 kts 258°
2026-05-06 05:15 41.53333 -90.58095 33973 ft 387 kts 258°
2026-05-06 05:15 41.52154 -90.65097 33971 ft 386 kts 258°
2026-05-06 05:16 41.50970 -90.72074 33969 ft 385 kts 258°
2026-05-06 05:16 41.49785 -90.79032 33960 ft 384 kts 258°
2026-05-06 05:17 41.48601 -90.85984 33959 ft 384 kts 258°
2026-05-06 05:17 41.47410 -90.92928 33973 ft 384 kts 258°
2026-05-06 05:18 41.46217 -90.99866 33987 ft 383 kts 258°
2026-05-06 05:18 41.45022 -91.06797 33992 ft 383 kts 258°
2026-05-06 05:19 41.43831 -91.13659 33998 ft 382 kts 258°
2026-05-06 05:19 41.42628 -91.20559 33998 ft 382 kts 258°
2026-05-06 05:20 41.41428 -91.27452 33999 ft 381 kts 258°
2026-05-06 05:20 41.40226 -91.34320 33993 ft 381 kts 258°
2026-05-06 05:21 41.39017 -91.41179 33992 ft 380 kts 258°
2026-05-06 05:21 41.37805 -91.48011 33457 ft 379 kts 258°
2026-05-06 05:21 41.37197 -91.51419 32958 ft 375 kts 258°
2026-05-06 05:22 41.36600 -91.54772 32576 ft 370 kts 258°
2026-05-06 05:22 41.36012 -91.58090 32011 ft 368 kts 258°
2026-05-06 05:22 41.35423 -91.61413 31351 ft 370 kts 257°
2026-05-06 05:22 41.34829 -91.64751 30664 ft 372 kts 257°
2026-05-06 05:23 41.34228 -91.68114 30137 ft 373 kts 257°
2026-05-06 05:23 41.33625 -91.71482 29958 ft 376 kts 257°
2026-05-06 05:23 41.32405 -91.78273 29974 ft 378 kts 257°
2026-05-06 05:24 41.31185 -91.85048 29976 ft 382 kts 257°
2026-05-06 05:24 41.29922 -91.92041 29971 ft 396 kts 257°
2026-05-06 05:25 41.28607 -91.99281 29974 ft 407 kts 257°
2026-05-06 05:25 41.27273 -92.06624 29456 ft 410 kts 257°
2026-05-06 05:26 41.26598 -92.10336 30064 ft 413 kts 257°
2026-05-06 05:26 41.25925 -92.14022 29968 ft 409 kts 257°
2026-05-06 05:26 41.24573 -92.21369 29997 ft 408 kts 257°
2026-05-06 05:27 41.23216 -92.28689 30002 ft 408 kts 257°
2026-05-06 05:27 41.21859 -92.36006 30006 ft 407 kts 257°
2026-05-06 05:28 41.20508 -92.43308 30008 ft 407 kts 257°
2026-05-06 05:28 41.19156 -92.50554 30013 ft 407 kts 256°
2026-05-06 05:29 41.17789 -92.57835 30016 ft 406 kts 256°
2026-05-06 05:29 41.16417 -92.65119 30014 ft 406 kts 256°
2026-05-06 05:30 41.15055 -92.72384 30020 ft 406 kts 256°
2026-05-06 05:30 41.13680 -92.79640 30011 ft 405 kts 256°
2026-05-06 05:31 41.12297 -92.86878 30019 ft 405 kts 256°
2026-05-06 05:31 41.10916 -92.94111 30017 ft 405 kts 256°
2026-05-06 05:32 41.09530 -93.01362 30019 ft 404 kts 256°
2026-05-06 05:32 41.08146 -93.08581 30014 ft 404 kts 256°
2026-05-06 05:33 41.06753 -93.15805 30018 ft 404 kts 256°
2026-05-06 05:33 41.05355 -93.23013 30012 ft 404 kts 256°
2026-05-06 05:34 41.03962 -93.30171 30013 ft 404 kts 256°
2026-05-06 05:34 41.02555 -93.37387 30012 ft 404 kts 256°
2026-05-06 05:35 41.01148 -93.44587 30014 ft 404 kts 256°
2026-05-06 05:35 40.99959 -93.50631 30011 ft 404 kts 256°
2026-05-06 05:36 40.98133 -93.57671 30017 ft 405 kts 250°
2026-05-06 05:36 40.96152 -93.64637 30021 ft 404 kts 251°
2026-05-06 05:37 40.94176 -93.71597 30025 ft 404 kts 250°
2026-05-06 05:37 40.92188 -93.78560 30032 ft 404 kts 250°
2026-05-06 05:38 40.90204 -93.85470 30020 ft 397 kts 249°
2026-05-06 05:38 40.88267 -93.92189 30009 ft 394 kts 249°
2026-05-06 05:39 40.86315 -93.98961 30001 ft 394 kts 249°
2026-05-06 05:39 40.84360 -94.05742 30010 ft 395 kts 249°
2026-05-06 05:40 40.82392 -94.12524 30015 ft 396 kts 249°
2026-05-06 05:40 40.80421 -94.19309 30025 ft 396 kts 249°
2026-05-06 05:41 40.78447 -94.26097 30028 ft 396 kts 249°
2026-05-06 05:41 40.76463 -94.32891 30028 ft 397 kts 249°
2026-05-06 05:42 40.74476 -94.39677 30032 ft 397 kts 249°
2026-05-06 05:42 40.72485 -94.46474 30040 ft 397 kts 249°
2026-05-06 05:43 40.70489 -94.53266 30042 ft 398 kts 249°
2026-05-06 05:43 40.68481 -94.60068 30051 ft 398 kts 249°
2026-05-06 05:44 40.66477 -94.66862 30056 ft 398 kts 249°
2026-05-06 05:44 40.64466 -94.73648 30058 ft 398 kts 249°
2026-05-06 05:45 40.62444 -94.80446 30068 ft 398 kts 249°
2026-05-06 05:45 40.60417 -94.87235 30064 ft 399 kts 249°
2026-05-06 05:46 40.58389 -94.94025 30073 ft 399 kts 249°
2026-05-06 05:46 40.56360 -95.00815 30075 ft 399 kts 249°
2026-05-06 05:47 40.54323 -95.07591 30071 ft 398 kts 249°
2026-05-06 05:47 40.52282 -95.14360 30076 ft 398 kts 249°
2026-05-06 05:48 40.50242 -95.21131 30073 ft 398 kts 249°
2026-05-06 05:48 40.48199 -95.27886 30063 ft 398 kts 249°
2026-05-06 05:49 40.46150 -95.34638 30063 ft 398 kts 249°
2026-05-06 05:49 40.44095 -95.41387 30062 ft 398 kts 249°
2026-05-06 05:50 40.42029 -95.48132 30062 ft 398 kts 249°
2026-05-06 05:50 40.39970 -95.54875 30061 ft 398 kts 249°
2026-05-06 05:51 40.37912 -95.61610 30061 ft 398 kts 249°
2026-05-06 05:51 40.35848 -95.68338 30068 ft 398 kts 249°
2026-05-06 05:52 40.33786 -95.75011 30068 ft 398 kts 249°
2026-05-06 05:52 40.31699 -95.81776 30422 ft 396 kts 249°
2026-05-06 05:53 40.30672 -95.85107 30721 ft 393 kts 249°
2026-05-06 05:53 40.29651 -95.88409 31052 ft 389 kts 249°
2026-05-06 05:53 40.28651 -95.91636 31392 ft 385 kts 249°
2026-05-06 05:53 40.27650 -95.94858 31727 ft 381 kts 249°
2026-05-06 05:54 40.26659 -95.98048 32072 ft 376 kts 250°
2026-05-06 05:54 40.25675 -96.01205 32408 ft 372 kts 250°
2026-05-06 05:54 40.24704 -96.04324 32751 ft 368 kts 250°
2026-05-06 05:54 40.23739 -96.07410 33082 ft 364 kts 250°
2026-05-06 05:55 40.22785 -96.10460 33401 ft 360 kts 250°
2026-05-06 05:55 40.21840 -96.13480 33731 ft 356 kts 250°
2026-05-06 05:55 40.20910 -96.16458 34004 ft 353 kts 250°
2026-05-06 05:55 40.19981 -96.19424 34068 ft 351 kts 250°
2026-05-06 05:56 40.18131 -96.25308 34072 ft 349 kts 250°
2026-05-06 05:56 40.16421 -96.31220 34074 ft 347 kts 255°
2026-05-06 05:57 40.15135 -96.37305 34073 ft 347 kts 255°
2026-05-06 05:57 40.13842 -96.43390 34078 ft 347 kts 255°
2026-05-06 05:58 40.13199 -96.46417 33887 ft 344 kts 255°
2026-05-06 05:58 40.12557 -96.49438 33027 ft 347 kts 255°
2026-05-06 05:58 40.11904 -96.52512 32006 ft 355 kts 255°
2026-05-06 05:58 40.11231 -96.55670 30921 ft 367 kts 255°
2026-05-06 05:59 40.10536 -96.58915 30380 ft 377 kts 255°
2026-05-06 05:59 40.09814 -96.62256 30168 ft 385 kts 255°
2026-05-06 05:59 40.09081 -96.65641 30042 ft 388 kts 255°
2026-05-06 05:59 40.08343 -96.69045 30081 ft 390 kts 255°
2026-05-06 06:00 40.06856 -96.75914 30076 ft 396 kts 255°
2026-05-06 06:00 40.05342 -96.82909 30078 ft 405 kts 255°
2026-05-06 06:01 40.04576 -96.86425 30462 ft 399 kts 255°
2026-05-06 06:01 40.03822 -96.89884 30684 ft 398 kts 255°
2026-05-06 06:01 40.03056 -96.93392 30475 ft 407 kts 255°
2026-05-06 06:01 40.02272 -96.96971 30454 ft 410 kts 255°
2026-05-06 06:02 40.00708 -97.04111 30453 ft 402 kts 255°
2026-05-06 06:02 39.99948 -97.07607 29902 ft 392 kts 255°
2026-05-06 06:02 39.99215 -97.10948 29949 ft 380 kts 255°
2026-05-06 06:03 39.97741 -97.17646 29944 ft 391 kts 255°
2026-05-06 06:03 39.97001 -97.20994 29956 ft 376 kts 255°
2026-05-06 06:03 39.96292 -97.24192 30074 ft 362 kts 255°
2026-05-06 06:04 39.94852 -97.30692 30080 ft 379 kts 255°
2026-05-06 06:04 39.93376 -97.37333 30080 ft 387 kts 255°
2026-05-06 06:05 39.91871 -97.44074 30083 ft 388 kts 254°
2026-05-06 06:05 39.90363 -97.50820 30078 ft 388 kts 254°
2026-05-06 06:06 39.88851 -97.57565 30084 ft 388 kts 254°
2026-05-06 06:06 39.87335 -97.64287 30078 ft 388 kts 254°
2026-05-06 06:07 39.85811 -97.71027 30079 ft 388 kts 254°
2026-05-06 06:07 39.84285 -97.77769 30083 ft 388 kts 254°
2026-05-06 06:08 39.82744 -97.84508 30083 ft 388 kts 253°
2026-05-06 06:08 39.81197 -97.91232 30081 ft 388 kts 253°
2026-05-06 06:09 39.79651 -97.97968 30082 ft 389 kts 253°
2026-05-06 06:09 39.78106 -98.04705 30087 ft 389 kts 253°
2026-05-06 06:10 39.76544 -98.11454 30095 ft 390 kts 253°
2026-05-06 06:10 39.74980 -98.18166 30091 ft 390 kts 253°
2026-05-06 06:11 39.73404 -98.24928 30096 ft 391 kts 253°
2026-05-06 06:11 39.71836 -98.31685 30089 ft 391 kts 253°
2026-05-06 06:12 39.70256 -98.38433 30088 ft 391 kts 252°
2026-05-06 06:12 39.68669 -98.45199 30086 ft 392 kts 252°
2026-05-06 06:13 39.67076 -98.51974 30088 ft 392 kts 252°
2026-05-06 06:13 39.65470 -98.58748 30087 ft 393 kts 252°
2026-05-06 06:14 39.63855 -98.65533 30090 ft 393 kts 252°
2026-05-06 06:14 39.62250 -98.72319 30086 ft 394 kts 252°
2026-05-06 06:15 39.60634 -98.79115 30086 ft 395 kts 252°
2026-05-06 06:15 39.59004 -98.85917 30092 ft 395 kts 252°
2026-05-06 06:16 39.57368 -98.92731 30089 ft 396 kts 252°
2026-05-06 06:16 39.56011 -98.98400 30093 ft 396 kts 252°
2026-05-06 06:17 39.54110 -99.06341 30095 ft 397 kts 252°
2026-05-06 06:17 39.52727 -99.12059 30098 ft 397 kts 251°
2026-05-06 06:18 39.51063 -99.18890 30096 ft 398 kts 251°
2026-05-06 06:18 39.49399 -99.25740 30105 ft 399 kts 251°
2026-05-06 06:19 39.47736 -99.32595 30105 ft 400 kts 251°
2026-05-06 06:19 39.46060 -99.39457 30109 ft 400 kts 251°
2026-05-06 06:20 39.44379 -99.46322 30109 ft 401 kts 251°
2026-05-06 06:20 39.42700 -99.53160 30108 ft 401 kts 251°
2026-05-06 06:21 39.41007 -99.60043 30119 ft 402 kts 251°
2026-05-06 06:21 39.39308 -99.66940 30112 ft 403 kts 251°
2026-05-06 06:22 39.37599 -99.73835 30105 ft 403 kts 251°
2026-05-06 06:22 39.35877 -99.80728 30110 ft 403 kts 251°
2026-05-06 06:23 39.34151 -99.87631 30112 ft 403 kts 251°
2026-05-06 06:23 39.32426 -99.94531 30108 ft 404 kts 251°
2026-05-06 06:24 39.30696 -100.01439 30113 ft 405 kts 251°
2026-05-06 06:24 39.28959 -100.08359 30114 ft 405 kts 251°
2026-05-06 06:25 39.27228 -100.15232 30114 ft 405 kts 251°
2026-05-06 06:26 39.24598 -100.25610 30114 ft 406 kts 251°
2026-05-06 06:26 39.22994 -100.32611 30111 ft 407 kts 254°
2026-05-06 06:27 39.21668 -100.39705 30104 ft 407 kts 255°
2026-05-06 06:27 39.20350 -100.46814 30109 ft 407 kts 254°
2026-05-06 06:28 39.18954 -100.53900 30102 ft 408 kts 254°
2026-05-06 06:28 39.17526 -100.60986 30104 ft 408 kts 254°
2026-05-06 06:29 39.16106 -100.68053 30108 ft 408 kts 254°
2026-05-06 06:29 39.14684 -100.75157 30107 ft 409 kts 254°
2026-05-06 06:30 39.13253 -100.82235 30109 ft 409 kts 254°
2026-05-06 06:30 39.11819 -100.89328 30108 ft 409 kts 254°
2026-05-06 06:31 39.10381 -100.96428 30108 ft 409 kts 254°
2026-05-06 06:31 39.08948 -101.03478 30112 ft 410 kts 254°
2026-05-06 06:32 39.07498 -101.10577 30119 ft 410 kts 254°
2026-05-06 06:32 39.06040 -101.17684 30117 ft 411 kts 254°
2026-05-06 06:33 39.04571 -101.24833 30121 ft 411 kts 254°
2026-05-06 06:33 39.03112 -101.31910 30118 ft 412 kts 254°
2026-05-06 06:34 39.01641 -101.39033 30122 ft 412 kts 254°
2026-05-06 06:34 39.00163 -101.46162 30118 ft 413 kts 254°
2026-05-06 06:35 38.98677 -101.53299 30115 ft 413 kts 254°
2026-05-06 06:35 38.97184 -101.60434 30114 ft 414 kts 254°
2026-05-06 06:36 38.95684 -101.67576 30117 ft 414 kts 254°
2026-05-06 06:36 38.94179 -101.74731 30112 ft 415 kts 254°
2026-05-06 06:37 38.92671 -101.81883 30107 ft 415 kts 254°
2026-05-06 06:37 38.91154 -101.89042 30114 ft 416 kts 253°
2026-05-06 06:38 38.89630 -101.96206 30113 ft 417 kts 253°
2026-05-06 06:38 38.88117 -102.03336 30111 ft 417 kts 254°
2026-05-06 06:39 38.86578 -102.10524 30108 ft 418 kts 253°
2026-05-06 06:39 38.85029 -102.17719 30110 ft 418 kts 253°
2026-05-06 06:40 38.83482 -102.24910 30106 ft 419 kts 253°
2026-05-06 06:40 38.81930 -102.32114 30103 ft 419 kts 253°
2026-05-06 06:41 38.80365 -102.39332 30106 ft 420 kts 253°
2026-05-06 06:41 38.78797 -102.46543 30099 ft 421 kts 253°
2026-05-06 06:42 38.77216 -102.53778 30099 ft 421 kts 253°
2026-05-06 06:42 38.75633 -102.61014 30089 ft 422 kts 253°
2026-05-06 06:43 38.74040 -102.68262 30091 ft 423 kts 253°
2026-05-06 06:43 38.72436 -102.75512 30086 ft 423 kts 253°
2026-05-06 06:44 38.70833 -102.82768 30084 ft 424 kts 253°
2026-05-06 06:44 38.69226 -102.90035 30074 ft 425 kts 253°
2026-05-06 06:45 38.67620 -102.97272 30078 ft 425 kts 253°
2026-05-06 06:45 38.65992 -103.04543 30068 ft 426 kts 253°
2026-05-06 06:46 38.64355 -103.11834 30065 ft 427 kts 253°
2026-05-06 06:46 38.62713 -103.19160 30059 ft 428 kts 253°
2026-05-06 06:47 38.61065 -103.26471 30061 ft 429 kts 253°
2026-05-06 06:47 38.59409 -103.33805 30060 ft 430 kts 253°
2026-05-06 06:48 38.57740 -103.41152 30059 ft 430 kts 253°
2026-05-06 06:48 38.56065 -103.48502 30048 ft 431 kts 253°
2026-05-06 06:49 38.54385 -103.55864 30045 ft 432 kts 253°
2026-05-06 06:49 38.52699 -103.63221 30037 ft 432 kts 253°
2026-05-06 06:50 38.51001 -103.70609 30037 ft 433 kts 253°
2026-05-06 06:50 38.49308 -103.77946 30035 ft 434 kts 253°
2026-05-06 06:51 38.47595 -103.85352 30034 ft 436 kts 253°
2026-05-06 06:51 38.45875 -103.92780 30037 ft 437 kts 253°
2026-05-06 06:52 38.44140 -104.00233 30048 ft 439 kts 253°
2026-05-06 06:52 38.42394 -104.07698 30049 ft 440 kts 253°
2026-05-06 06:53 38.40646 -104.15172 30044 ft 441 kts 253°
2026-05-06 06:53 38.38878 -104.22686 30049 ft 442 kts 253°
2026-05-06 06:54 38.37098 -104.30203 30046 ft 443 kts 253°
2026-05-06 06:54 38.35323 -104.37725 30046 ft 444 kts 253°
2026-05-06 06:55 38.33537 -104.45272 30047 ft 445 kts 253°
2026-05-06 06:55 38.31744 -104.52826 30044 ft 446 kts 253°
2026-05-06 06:56 38.29946 -104.60357 30044 ft 447 kts 253°
2026-05-06 06:56 38.28130 -104.67943 30032 ft 448 kts 253°
2026-05-06 06:57 38.26301 -104.75539 30011 ft 449 kts 253°
2026-05-06 06:57 38.24465 -104.83150 29983 ft 451 kts 253°
2026-05-06 06:58 38.22620 -104.90780 29952 ft 452 kts 253°
2026-05-06 06:58 38.20756 -104.98442 29932 ft 453 kts 253°
2026-05-06 06:59 38.18884 -105.06115 29915 ft 454 kts 253°
2026-05-06 06:59 38.17012 -105.13795 29898 ft 455 kts 253°
2026-05-06 07:00 38.15124 -105.21490 29886 ft 457 kts 253°
2026-05-06 07:00 38.13548 -105.27895 29869 ft 458 kts 253°
2026-05-06 07:01 38.11641 -105.35623 29848 ft 459 kts 253°
2026-05-06 07:01 38.09734 -105.43369 29826 ft 460 kts 253°
2026-05-06 07:02 38.07821 -105.51121 29875 ft 462 kts 253°
2026-05-06 07:02 38.06854 -105.55009 30083 ft 462 kts 253°
2026-05-06 07:02 38.05883 -105.58895 30354 ft 461 kts 253°
2026-05-06 07:02 38.04916 -105.62762 30628 ft 459 kts 253°
2026-05-06 07:03 38.03965 -105.66560 30923 ft 457 kts 253°
2026-05-06 07:03 38.03006 -105.70382 31237 ft 454 kts 252°
2026-05-06 07:03 38.02081 -105.74075 31546 ft 452 kts 252°
2026-05-06 07:03 38.01115 -105.77892 31862 ft 449 kts 251°
2026-05-06 07:04 38.00080 -105.81615 32176 ft 446 kts 249°
2026-05-06 07:04 37.98963 -105.85277 32489 ft 443 kts 248°
2026-05-06 07:04 37.97803 -105.88876 32801 ft 440 kts 247°
2026-05-06 07:04 37.96643 -105.92397 33108 ft 437 kts 247°
2026-05-06 07:05 37.95464 -105.95986 33415 ft 434 kts 247°
2026-05-06 07:05 37.94322 -105.99519 33712 ft 432 kts 247°
2026-05-06 07:05 37.93213 -106.02999 33807 ft 430 kts 248°
2026-05-06 07:06 37.90997 -106.10016 33855 ft 429 kts 248°
2026-05-06 07:06 37.88771 -106.17082 33898 ft 429 kts 248°
2026-05-06 07:07 37.86571 -106.24047 33935 ft 429 kts 248°
2026-05-06 07:07 37.84328 -106.31070 33967 ft 430 kts 247°
2026-05-06 07:08 37.82086 -106.38083 33989 ft 430 kts 247°
2026-05-06 07:08 37.79842 -106.45111 33991 ft 431 kts 247°
2026-05-06 07:09 37.77584 -106.52146 33974 ft 431 kts 247°
2026-05-06 07:09 37.75315 -106.59172 33961 ft 431 kts 247°
2026-05-06 07:10 37.73048 -106.66201 33926 ft 432 kts 247°
2026-05-06 07:10 37.70796 -106.73201 33893 ft 433 kts 247°
2026-05-06 07:11 37.68517 -106.80243 33870 ft 434 kts 247°
2026-05-06 07:11 37.66223 -106.87298 33869 ft 435 kts 247°
2026-05-06 07:12 37.63922 -106.94369 33877 ft 436 kts 247°
2026-05-06 07:12 37.61610 -107.01459 33901 ft 437 kts 247°
2026-05-06 07:13 37.59282 -107.08548 33917 ft 438 kts 247°
2026-05-06 07:13 37.56944 -107.15664 33928 ft 440 kts 247°
2026-05-06 07:14 37.54603 -107.22797 33927 ft 441 kts 247°
2026-05-06 07:14 37.52251 -107.29945 33922 ft 442 kts 247°
2026-05-06 07:15 37.49891 -107.37094 33922 ft 443 kts 247°
2026-05-06 07:15 37.47516 -107.44257 33898 ft 444 kts 247°
2026-05-06 07:16 37.45140 -107.51408 33900 ft 445 kts 247°
2026-05-06 07:16 37.42750 -107.58604 33926 ft 446 kts 247°
2026-05-06 07:17 37.40339 -107.65810 33954 ft 447 kts 247°
2026-05-06 07:17 37.37920 -107.73032 33970 ft 448 kts 247°
2026-05-06 07:18 37.35504 -107.80262 33982 ft 449 kts 247°
2026-05-06 07:18 37.33071 -107.87514 33984 ft 450 kts 247°
2026-05-06 07:19 37.30624 -107.94752 33974 ft 451 kts 247°
2026-05-06 07:19 37.28166 -108.02008 33956 ft 451 kts 247°
2026-05-06 07:20 37.25725 -108.09230 33937 ft 452 kts 247°
2026-05-06 07:20 37.23265 -108.16505 33910 ft 453 kts 247°
2026-05-06 07:21 37.20790 -108.23775 33919 ft 454 kts 247°
2026-05-06 07:21 37.18297 -108.31071 33938 ft 455 kts 247°
2026-05-06 07:22 37.15793 -108.38388 33957 ft 456 kts 247°
2026-05-06 07:22 37.13285 -108.45689 33966 ft 457 kts 247°
2026-05-06 07:23 37.10766 -108.53029 33970 ft 458 kts 247°
2026-05-06 07:23 37.08262 -108.60311 33963 ft 459 kts 247°
2026-05-06 07:24 37.05705 -108.67718 33942 ft 460 kts 247°
2026-05-06 07:24 37.03173 -108.75025 33909 ft 461 kts 247°
2026-05-06 07:25 37.00611 -108.82398 33884 ft 462 kts 247°
2026-05-06 07:25 36.98049 -108.89775 33869 ft 463 kts 247°
2026-05-06 07:26 36.95468 -108.97170 33859 ft 464 kts 247°
2026-05-06 07:26 36.92877 -109.04567 33859 ft 465 kts 248°
2026-05-06 07:27 36.90281 -109.11970 33873 ft 465 kts 248°
2026-05-06 07:27 36.87676 -109.19385 33875 ft 466 kts 248°
2026-05-06 07:28 36.85060 -109.26796 33872 ft 467 kts 248°
2026-05-06 07:28 36.81126 -109.37930 33869 ft 468 kts 248°
2026-05-06 07:29 36.78506 -109.45334 33864 ft 470 kts 248°
2026-05-06 07:29 36.75854 -109.52814 33859 ft 472 kts 248°
2026-05-06 07:30 36.73186 -109.60305 33857 ft 474 kts 247°
2026-05-06 07:30 36.70496 -109.67818 33854 ft 475 kts 248°
2026-05-06 07:31 36.67809 -109.75334 33861 ft 475 kts 248°
2026-05-06 07:31 36.65118 -109.82860 33869 ft 476 kts 248°
2026-05-06 07:32 36.62409 -109.90387 33875 ft 476 kts 248°
2026-05-06 07:32 36.59701 -109.97907 33881 ft 476 kts 247°
2026-05-06 07:33 36.56983 -110.05419 33884 ft 476 kts 248°
2026-05-06 07:33 36.54262 -110.12937 33893 ft 477 kts 248°
2026-05-06 07:34 36.51549 -110.20417 33896 ft 477 kts 248°
2026-05-06 07:34 36.48793 -110.27988 33899 ft 478 kts 247°
2026-05-06 07:35 36.46065 -110.35455 33902 ft 478 kts 247°
2026-05-06 07:35 36.43315 -110.42972 33908 ft 478 kts 247°
2026-05-06 07:36 36.40561 -110.50491 33908 ft 478 kts 247°
2026-05-06 07:36 36.37800 -110.57994 33911 ft 479 kts 247°
2026-05-06 07:37 36.35020 -110.65517 33911 ft 479 kts 247°
2026-05-06 07:37 36.32246 -110.73025 33910 ft 479 kts 247°
2026-05-06 07:38 36.29464 -110.80552 33908 ft 480 kts 247°
2026-05-06 07:38 36.26676 -110.88072 33906 ft 481 kts 247°
2026-05-06 07:39 36.23867 -110.95605 33899 ft 482 kts 247°
2026-05-06 07:39 36.21053 -111.03139 33895 ft 483 kts 247°
2026-05-06 07:40 36.18231 -111.10693 33893 ft 484 kts 247°
2026-05-06 07:40 36.15401 -111.18252 33895 ft 484 kts 247°
2026-05-06 07:41 36.12579 -111.25775 33893 ft 485 kts 247°
2026-05-06 07:41 36.09480 -111.33202 33894 ft 487 kts 242°
2026-05-06 07:42 36.06031 -111.40434 33899 ft 489 kts 240°
2026-05-06 07:42 36.02539 -111.47651 33909 ft 490 kts 241°
2026-05-06 07:43 35.99128 -111.54934 33920 ft 490 kts 242°
2026-05-06 07:43 35.95750 -111.62249 33936 ft 490 kts 242°
2026-05-06 07:44 35.92367 -111.69561 33954 ft 490 kts 242°
2026-05-06 07:44 35.88958 -111.76860 33960 ft 490 kts 242°
2026-05-06 07:45 35.85534 -111.84136 33967 ft 491 kts 242°
2026-05-06 07:45 35.82120 -111.91432 33972 ft 491 kts 242°
2026-05-06 07:46 35.78802 -111.98791 33967 ft 492 kts 243°
2026-05-06 07:46 35.76068 -112.04928 33968 ft 492 kts 243°
2026-05-06 07:47 35.72747 -112.12310 33971 ft 492 kts 242°
2026-05-06 07:47 35.69334 -112.19622 33982 ft 493 kts 241°
2026-05-06 07:48 35.65870 -112.26903 33987 ft 493 kts 241°
2026-05-06 07:48 35.62423 -112.34189 33993 ft 493 kts 242°
2026-05-06 07:49 35.58990 -112.41488 34002 ft 493 kts 242°